Regional Weather Roundup
Issued by NWS

Home | Current Version | Previous Version | Text Only | Print | Product List | Glossary On
Versions: 1 2 3 4 5 6 7 8 9 10 11 12 13 14 15 16 17 18 19 20 21 22 23 24 25 26 27
000
ASUS42 KTBW 030316
RWRFL
FLORIDA REGIONAL WEATHER ROUNDUP
NATIONAL WEATHER SERVICE TAMPA BAY RUSKIN FL
1100 PM EDT MON MAY 02 2016

NOTE: "FAIR" INDICATES FEW OR NO CLOUDS BELOW 12,000 FEET WITH NO
SIGNIFICANT WEATHER AND/OR OBSTRUCTIONS TO VISIBILITY.

FLZ001>010-012>015-112-114-115-030400-
PANHANDLE FLORIDA

CITY           SKY/WX    TMP DP  RH WIND       PRES   REMARKS
PENSACOLA      PTCLDY    71  66  84 CALM      29.95R
PENSACOLA NAS  MOCLDY    70  65  84 CALM      29.96R
MILTON NAS     CLOUDY    69  69 100 SW5       29.95
CRESTVIEW      LGT RAIN  70  66  87 SE6       29.95F
PANAMA CITY    FAIR      74  72  93 CALM      29.95F
APALACHICOLA   MOCLDY    77  74  90 S6        29.98R

STATION/POSITION SKY/WX   TEMP    WIND        PRES    WAVE   SWELL
                          AIR SEA DIR/SP/G            HT/PER HT/PER
                          (F)     (DEG/KT/KT) (MB)    (FT/S) (FT/S)
30.1N   87.6W              75 76  360/  8/  8 1014.0R   3/ 7   2/ 7
29.2N   88.2W              76 77  160/  4/  6 1014.5R
28.8N   86.0W              78 78  200/  8/  8 1015.1S   2/ 7   2/ 7
PANAMA CITY BEAC           76 80              1015.0R
TOWER C                    75     200/  6/  7 1015.9R
28.5N   84.5W              77 76  210/  6/  6 1015.2R   2/ 6   2/ 6

$$
FLZ011-016>038-118-127-128-134-139-239-030400-
NORTH FLORIDA

CITY           SKY/WX    TMP DP  RH WIND       PRES   REMARKS
MARIANNA       CLOUDY    73  72  96 S6        29.96R
TALLAHASSEE    CLOUDY    77  68  73 W5        29.97F
PERRY          PTCLDY    71  69  93 CALM      29.99F
LIVE OAK         N/A     70  70 100 CALM      30.00S
CROSS CITY       N/A     71  67  87 CALM      29.99R
LAKE CITY      FAIR      70  68  94 CALM      29.99S
GAINESVILLE    PTCLDY    74  67  78 CALM      30.00R
WILLISTON      FAIR      75  70  83 SW3       30.00R
PALATKA        MOCLDY    75  75 100 S13       30.00S
MAYPORT NAS    CLOUDY    76  71  85 S7        29.99S
JACKSONVILLE   MOCLDY    76  70  82 CALM      29.98S
JAX NAS        CLOUDY    79  70  74 E3        30.00R
JAX CECIL      MOCLDY    72  72 100 CALM      30.00R
FERNANDINA BEA MOCLDY    79  72  78 SE6       29.98S
ST AUGUSTINE   PTCLDY    76  72  87 S6        30.00F
PALM COAST     MOCLDY    75  73  93 S5        30.01S

STATION/POSITION SKY/WX   TEMP    WIND        PRES    WAVE   SWELL
                          AIR SEA DIR/SP/G            HT/PER HT/PER
                          (F)     (DEG/KT/KT) (MB)    (FT/S) (FT/S)
SHELL POINT                78     240/ 10/ 13 1014.1
KEATON BEACH               76     260/ 10/ 11 1015.2R
CEDAR KEY                  77     270/  5/  8 1016.1R
FERNANDINA                 77 77              1015.4R
30.7N   81.3W                 74                N/A     3/ 4
MAYPORT                    77 75              1015.7R
ST AUGUSTINE               75 75  180/ 14/ 17 1016.4R

$$
FLZ040-043>046-052-053-057-058-063-144-030400-
INTERIOR CENTRAL FLORIDA

CITY           SKY/WX    TMP DP  RH WIND       PRES   REMARKS
OCALA          MOCLDY    73  66  78 S5        30.00S
THE VILLAGES     N/A     77  70  78 CALM      29.91S
LEESBURG       CLOUDY    78  68  71 S3        30.02R
SANFORD        CLOUDY    73  67  81 S8        30.02S
ORLANDO EXEC   LGT RAIN  74  70  87 SW16G25   30.01F
ORLANDO INTL   TSTM      73  70  90 SW10      30.04R FOG
WINTER HAVEN   CLOUDY    76  71  85 SE3       30.03R
LAKELAND       CLOUDY    77  72  83 W5        30.02R
BARTOW         MOCLDY    73  73 100 CALM      30.03R
OKEECHOBEE     MOCLDY    77  72  83 SE8       30.02S

$$
FLZ041-047-054-059-064-141-147-030400-
EAST CENTRAL FLORIDA

CITY           SKY/WX    TMP DP  RH WIND       PRES   REMARKS
DAYTONA BEACH  CLOUDY    77  72  84 CALM      30.02R
DELAND           N/A     75  73  94 S7        30.02S
MELBOURNE      CLOUDY    78  72  81 SE12      30.01R
VERO BEACH     CLOUDY    78  72  81 SE12      30.02S
FT PIERCE      CLOUDY    77  71  82 S10       30.01S
STUART         PTCLDY    81  73  78 SE10      30.03S

STATION/POSITION SKY/WX   TEMP    WIND        PRES    WAVE   SWELL
                          AIR SEA DIR/SP/G            HT/PER HT/PER
                          (F)     (DEG/KT/KT) (MB)    (FT/S) (FT/S)
28.5N   80.2W              78 77  150/ 16/ 17 1016.2R
28.9N   78.5W              77 79  150/ 16/ 19 1017.3R
TRIDENT PIER               78 80              1016.0R
28.4N   80.5W                 78                N/A     4/ 5
27.5N   80.2W                 77                N/A     3/11   2/11

$$
FLZ050-056-061-142-242-148-248-149-249-151-251-155-255-
160-260-030400-
WEST CENTRAL FLORIDA

CITY           SKY/WX    TMP DP  RH WIND       PRES   REMARKS
CRYSTAL RIVER  FAIR      72  70  94 CALM      30.00R
INVERNESS      FAIR      70  70 100 CALM      30.01R
BROOKSVILLE    CLEAR     71  69  93 CALM      30.01S
ZEPHYRHILLS    MOCLDY    74  67  77 CALM      30.02R
CLEARWATER AIR FAIR      77  72  83 SW3       30.00S
ST PETE CLEARW MOCLDY    77  71  82 W6        30.00R
TAMPA INTL     MOCLDY    78  71  79 W6        30.01R
TAMPA EXEC     MOCLDY    77  70  78 CALM      30.01S
PLANT CITY     PTCLDY    79  72  78 CALM      30.03S
PETER O KNIGHT MOCLDY    81  73  78 W3        30.01R
ST PETERSBURG  CLOUDY    79  72  79 W7        29.99R
SARASOTA       CLOUDY    79  72  79 SW6       30.00R
VENICE         NOT AVBL

STATION/POSITION SKY/WX   TEMP    WIND        PRES    WAVE   SWELL
                          AIR SEA DIR/SP/G            HT/PER HT/PER
                          (F)     (DEG/KT/KT) (MB)    (FT/S) (FT/S)
27.3N   84.2W                 80                N/A     3/ 6
CLEARWATER BEACH           78 81              1015.7R
MIDDLE TAMPA BAY           79                 1015.8R
VENICE                     79 83  220/  5/  6 1015.8R

$$
FLZ066-069-070-075>078-162-262-165-265-030400-
SOUTHWEST FLORIDA AND KEYS

CITY           SKY/WX    TMP DP  RH WIND       PRES   REMARKS
PUNTA GORDA    MOCLDY    78  73  84 CALM      30.02R
FT MYERS       PTCLDY    79  74  84 CALM      30.00R
SOUTHWEST INTL MOCLDY    79  74  84 CALM      30.00R
NAPLES         PTCLDY    80  74  81 S5        30.00R
MARCO ISLAND   MOCLDY    79  70  73 E6        30.00R
MARATHON       PTCLDY    81  75  82 E10       30.00R
KEY WEST NAS   MOCLDY    81  75  82 SE16      30.00R
KEY WEST INTL  CLOUDY    78  77  96 SE14      30.00S

STATION/POSITION SKY/WX   TEMP    WIND        PRES    WAVE   SWELL
                          AIR SEA DIR/SP/G            HT/PER HT/PER
                          (F)     (DEG/KT/KT) (MB)    (FT/S) (FT/S)
NAPLES                        84              1015.5R
26.0N   85.6W              80 80   80/  6/  6 1016.2R   4/ 8   3/ 8
DRY TORTUGAS               79     140/ 13/ 14 1015.5R
SAND KEY                   80     130/ 15/ 18 1016.2R
LONG KEY                   81 83  120/ 14/ 16 1016.3R

$$
FLZ067-068-071>074-168-172>174-030400-
SOUTHEAST FLORIDA

CITY           SKY/WX    TMP DP  RH WIND       PRES   REMARKS
W PALM BEACH   MOCLDY    79  72  79 SE13      30.03R
BOCA RATON     MOCLDY    81  73  78 S7        30.02R
FT LAUDER-EXEC PTCLDY    80  72  76 SE9       30.01R
FT LAUDERDALE  PTCLDY    80  73  79 SE14      30.01R
POMPANO BEACH  PTCLDY    80  73  79 SE15      30.02R
PEMBROKE PINES CLEAR     80  72  76 SE9       30.02R
OPA LOCKA      PTCLDY    80  73  79 SE10      30.01R
MIAMI          PTCLDY    79  73  82 E12       30.01R
WEST KENDALL   CLEAR     79  73  82 SE9       30.00S
HOMESTEAD      NOT AVBL

STATION/POSITION SKY/WX   TEMP    WIND        PRES    WAVE   SWELL
                          AIR SEA DIR/SP/G            HT/PER HT/PER
                          (F)     (DEG/KT/KT) (MB)    (FT/S) (FT/S)
PORT EVERGLADES            80     130/ 11/ 15 1015.9R
VIRGINIA KEY               80 83              1016.2R
LAKE WORTH                 79 80              1016.2R
SETTLEMENT POINT           77     140/  9/ 11 1018.0R

$$





USA.gov is the U.S. government's official web portal to all federal, state and local government web resources and services.